Aérodrome :
LOGIN :

S'inscrire | Disclaimer

   EN    FR    IT 

 










Légende :    VFR   VFR Marginal   IFR   IFR Intensif   IFR Très Intensif
Visi : 
Plafond : 
>= 8 km
>= 3000ft
5 à 8 km
1000 à 3000 ft
1500m à 5 km
500 à 1000 ft
800 à 1500m
200 à 500 ft
< 800m
< 200 ft
Symboles :   Orages  Brouillard  Fortes neiges  Fortes précipitations  Vent > 20 kt
SIGMETs :   Divers  Orages  Givrage  Turbulence  Onde Orograph.  Cendres Volcan.







- Altitude de l'aérodrome : 1674 ft
- Code IATA : BRN


LSZB - Bern Belp

DERNIER METAR :
  • 181750Z VRB01KT CAVOK M02/M04 Q1016 NOSIG

METARs EXPIRÉS :
  • 181720Z 02002KT CAVOK M01/M04 Q1016 NOSIG
  • 181650Z VRB02KT CAVOK M00/M05 Q1016 NOSIG
  • 181620Z VRB02KT CAVOK M00/M05 Q1016 NOSIG
  • 181550Z 05003KT CAVOK 00/M05 Q1016 NOSIG
  • 181520Z 05005KT CAVOK 01/M05 Q1016 NOSIG

TAF TAF LSZB
Valide du 18 à 15h jusqu'au 19 à 00h UTC


181425Z 1815/1824 VRB03KT 9999 FEW025 SCT180
TEMPO 1815/1824 CAVOK
ATIS : +41 22 417 40 76
Pas de NOTAMs connus pour ce terrain.



MET'MAP, la Météo Aéronautique d'un coup d'oeil ! - Copyright ORBIFLY Décembre 2007 - Disclaimer

ORBIFLY MET'MAP TEAM :

Programmation & Développement : Alexandra Zaïnal
Conception & Développement : Baudouin d'Aumeries
Co-Programmation & Développement : Marc-Olivier Méhu
Soutien technique & logistique : Manuel Goepfert

Contact : metmap@orbifly.com




SOURCES & CREDITS :

   NOAA